This is the latest recevied weather packets stored in our database for station/object KC1OHT-13. If no packets are shown the sender has not sent any weather packets the latest 1 day(s).
| Time | Temp. | Humidity | Pressure | Rain* | Wind** | Luminosity | Snow |
|---|---|---|---|---|---|---|---|
| 1777998596 | 23.33° C | 49% | 1007.5 hPa | 0 mm | 1.79 m/s, 16° | 715 W/m² | - |
| 1777998291 | 23.33° C | 50% | 1007.5 hPa | 0 mm | 1.34 m/s, 149° | 705 W/m² | - |
| 1777997987 | 22.78° C | 51% | 1007.4 hPa | 0 mm | 0.89 m/s, 154° | 720 W/m² | - |
| 1777997679 | 22.78° C | 51% | 1007.4 hPa | 0 mm | 2.24 m/s, 218° | 732 W/m² | - |
| 1777997376 | 22.78° C | 53% | 1007.4 hPa | 0 mm | 1.79 m/s, 18° | 726 W/m² | - |
| 1777997075 | 22.78° C | 53% | 1007.6 hPa | 0 mm | 1.34 m/s, 202° | 530 W/m² | - |
| 1777996770 | 23.33° C | 51% | 1007.6 hPa | 0 mm | 1.34 m/s, 238° | 412 W/m² | - |
| 1777996467 | 22.78° C | 52% | 1007.6 hPa | 0 mm | 0.89 m/s, 207° | 774 W/m² | - |
| 1777996164 | 22.22° C | 53% | 1007.7 hPa | 0 mm | 1.34 m/s, 164° | 371 W/m² | - |
| 1777995860 | 22.78° C | 51% | 1007.7 hPa | 0 mm | 1.79 m/s, 129° | 395 W/m² | - |
| 1777995556 | 23.89° C | 50% | 1007.7 hPa | 0 mm | 0.45 m/s, 182° | 814 W/m² | - |
| 1777995254 | 22.78° C | 51% | 1007.6 hPa | 0 mm | 1.79 m/s, 254° | 739 W/m² | - |
| 1777994950 | 23.33° C | 50% | 1007.7 hPa | 0 mm | 0.45 m/s, 46° | 286 W/m² | - |
| 1777994647 | 22.78° C | 51% | 1007.5 hPa | 0 mm | 0.89 m/s, 206° | 728 W/m² | - |
| 1777994342 | 22.22° C | 51% | 1007.6 hPa | 0 mm | 1.79 m/s, 172° | 670 W/m² | - |
| 1777994039 | 22.22° C | 52% | 1007.7 hPa | 0 mm | 1.79 m/s, 169° | 653 W/m² | - |
| 1777993735 | 21.67° C | 54% | 1007.7 hPa | 0 mm | 0.89 m/s, 169° | 652 W/m² | - |
| 1777993432 | 21.11° C | 55% | 1007.8 hPa | 0 mm | 0.89 m/s, 191° | 651 W/m² | - |
| 1777993126 | 21.11° C | 56% | 1008 hPa | 0 mm | 0.45 m/s, 245° | 467 W/m² | - |
| 1777992825 | 21.11° C | 55% | 1007.8 hPa | 0 mm | 0.89 m/s, 232° | 642 W/m² | - |
| 1777992522 | 20.56° C | 57% | 1007.9 hPa | 0 mm | 0.45 m/s, 356° | 713 W/m² | - |
| 1777992221 | 20° C | 58% | 1008 hPa | 0 mm | 0.89 m/s, 34° | 404 W/m² | - |
| 1777991912 | 20.56° C | 56% | 1007.8 hPa | 0 mm | 0.89 m/s, 109° | 145 W/m² | - |
| 1777991609 | 20.56° C | 57% | 1007.8 hPa | 0 mm | 0.89 m/s, 326° | 291 W/m² | - |
| 1777991306 | 20° C | 58% | 1007.9 hPa | 0 mm | 0.45 m/s, 33° | 726 W/m² | - |
* Rain latest hour (hover to see other rain measurements)
** Current wind speed in m/s (hover to see current wind gust speed)